"datetime","temp","dp","rain_mm","uv","solar","mb","wind_mph","gust_mph","windchill","rh"
"2017-12-29 00:00:00","-3.7","-4.5",0.0,0.0,0,1005.1,0,0,"",94
"2017-12-29 00:01:00","-3.7","-4.5",0.0,0.0,0,1005.1,0,0,"",94
"2017-12-29 00:02:00","-3.7","-4.5",0.0,0.0,0,1005.1,0,0,"",94
"2017-12-29 00:03:00","-3.7","-4.5",0.0,0.0,0,1005.1,0,0,"",94
"2017-12-29 00:04:00","-3.7","-4.5",0.0,0.0,0,1005.1,0,0,"",94
"2017-12-29 00:05:00","-3.7","-4.5",0.0,0.0,0,1005.1,0,0,"",94
"2017-12-29 00:06:00","-3.6","-4.4",0.0,0.0,0,1005.0,0,0,"",94
"2017-12-29 00:07:00","-3.7","-4.5",0.0,0.0,0,1005.1,0,0,"",94
"2017-12-29 00:08:00","-3.7","-4.5",0.0,0.0,0,1005.0,0,0,"",94
"2017-12-29 00:09:00","-3.7","-4.5",0.0,0.0,0,1004.9,0,0,"",94
"2017-12-29 00:10:00","-3.7","-4.5",0.0,0.0,0,1004.9,0,0,"",94
"2017-12-29 00:11:00","-3.7","-4.5",0.0,0.0,0,1004.8,0,0,"",94
"2017-12-29 00:12:00","-3.7","-4.5",0.0,0.0,0,1004.8,0,0,"",94
"2017-12-29 00:13:00","-3.7","-4.5",0.0,0.0,0,1004.8,0,0,"",94
"2017-12-29 00:14:00","-3.7","-4.5",0.0,0.0,0,1004.7,0,0,"",94
"2017-12-29 00:15:00","-3.7","-4.5",0.0,0.0,0,1004.7,0,0,"",94
"2017-12-29 00:16:00","-3.7","-4.5",0.0,0.0,0,1004.7,0,0,"",94
"2017-12-29 00:17:00","-3.7","-4.5",0.0,0.0,0,1004.7,0,0,"",94
"2017-12-29 00:18:00","-3.7","-4.5",0.0,0.0,0,1004.6,0,0,"",94
"2017-12-29 00:19:00","-3.7","-4.5",0.0,0.0,0,1004.7,0,0,"",94
"2017-12-29 00:20:00","-3.7","-4.5",0.0,0.0,0,1004.7,0,0,"",94
"2017-12-29 00:21:00","-3.7","-4.5",0.0,0.0,0,1004.7,0,0,"",94
"2017-12-29 00:22:00","-3.7","-4.5",0.0,0.0,0,1004.7,0,0,"",94
"2017-12-29 00:23:00","-3.7","-4.5",0.0,0.0,0,1004.7,0,0,"",94
"2017-12-29 00:24:00","-3.7","-4.5",0.0,0.0,0,1004.7,0,0,"",94
"2017-12-29 00:25:00","-3.7","-4.5",0.0,0.0,0,1004.8,0,0,"",94
"2017-12-29 00:26:00","-3.7","-4.5",0.0,0.0,0,1004.7,0,0,"",94
"2017-12-29 00:27:00","-3.7","-4.5",0.0,0.0,0,1004.8,0,0,"",94
"2017-12-29 00:28:00","-3.7","-4.5",0.0,0.0,0,1004.8,0,0,"",94
"2017-12-29 00:29:00","-3.7","-4.5",0.0,0.0,0,1004.7,0,0,"",94
"2017-12-29 00:30:00","-3.7","-4.5",0.0,0.0,0,1004.7,0,0,"",94
"2017-12-29 00:31:00","-3.7","-4.5",0.0,0.0,0,1004.7,0,0,"",94
"2017-12-29 00:32:00","-3.7","-4.5",0.0,0.0,0,1004.6,0,0,"",94
"2017-12-29 00:33:00","-3.7","-4.5",0.0,0.0,0,1004.6,0,0,"",94
"2017-12-29 00:34:00","-3.7","-4.5",0.0,0.0,0,1004.6,0,0,"",94
"2017-12-29 00:35:00","-3.7","-4.5",0.0,0.0,0,1004.6,0,0,"",94
"2017-12-29 00:36:00","-3.7","-4.5",0.0,0.0,0,1004.6,0,0,"",94
"2017-12-29 00:37:00","-3.7","-4.5",0.0,0.0,0,1004.6,0,0,"",94
"2017-12-29 00:38:00","-3.8","-4.6",0.0,0.0,0,1004.6,0,0,"",94
"2017-12-29 00:39:00","-3.7","-4.5",0.0,0.0,0,1004.6,0,0,"",94
"2017-12-29 00:40:00","-3.8","-4.6",0.0,0.0,0,1004.6,0,0,"",94
"2017-12-29 00:41:00","-3.8","-4.6",0.0,0.0,0,1004.6,0,0,"",94
"2017-12-29 00:42:00","-3.8","-4.6",0.0,0.0,0,1004.6,0,0,"",94
"2017-12-29 00:43:00","-3.8","-4.6",0.0,0.0,0,1004.6,0,0,"",94
"2017-12-29 00:44:00","-3.8","-4.6",0.0,0.0,0,1004.5,0,0,"",94
"2017-12-29 00:45:00","-3.8","-4.6",0.0,0.0,0,1004.5,0,0,"",94
"2017-12-29 00:46:00","-3.8","-4.6",0.0,0.0,0,1004.4,0,0,"",94
"2017-12-29 00:47:00","-3.8","-4.6",0.0,0.0,0,1004.4,0,0,"",94
"2017-12-29 00:48:00","-3.8","-4.6",0.0,0.0,0,1004.4,0,0,"",94
"2017-12-29 00:49:00","-3.8","-4.6",0.0,0.0,0,1004.4,0,0,"",94
"2017-12-29 00:50:00","-3.8","-4.6",0.0,0.0,0,1004.3,0,0,"",94
"2017-12-29 00:51:00","-3.8","-4.6",0.0,0.0,0,1004.4,0,0,"",94
"2017-12-29 00:52:00","-3.8","-4.6",0.0,0.0,0,1004.3,0,0,"",94
"2017-12-29 00:53:00","-3.8","-4.6",0.0,0.0,0,1004.3,0,0,"",94
"2017-12-29 00:54:00","-3.8","-4.6",0.0,0.0,0,1004.2,0,0,"",94
"2017-12-29 00:55:00","-3.8","-4.6",0.0,0.0,0,1004.2,0,0,"",94
"2017-12-29 00:56:00","-3.8","-4.6",0.0,0.0,0,1004.2,0,0,"",94
"2017-12-29 00:57:00","-3.8","-4.6",0.0,0.0,0,1004.2,0,0,"",94
"2017-12-29 00:58:00","-3.8","-4.6",0.0,0.0,0,1004.2,0,0,"",94
"2017-12-29 00:59:00","-3.8","-4.6",0.0,0.0,0,1004.1,0,0,"",94
"2017-12-29 01:00:00","-3.8","-4.6",0.0,0.0,0,1004.1,0,0,"",94
"2017-12-29 01:01:00","-3.9","-4.7",0.0,0.0,0,1004.1,0,0,"",94
"2017-12-29 01:02:00","-3.8","-4.6",0.0,0.0,0,1004.1,0,0,"",94
"2017-12-29 01:03:00","-3.9","-4.7",0.0,0.0,0,1004.1,0,0,"",94
"2017-12-29 01:04:00","-3.9","-4.7",0.0,0.0,0,1004.1,0,0,"",94
"2017-12-29 01:05:00","-3.9","-4.7",0.0,0.0,0,1004.0,0,0,"",94
"2017-12-29 01:06:00","-3.9","-4.7",0.0,0.0,0,1004.0,0,0,"",94
"2017-12-29 01:07:00","-3.9","-4.7",0.0,0.0,0,1004.0,0,0,"",94
"2017-12-29 01:08:00","-3.9","-4.7",0.0,0.0,0,1004.0,0,0,"",94
"2017-12-29 01:09:00","-3.9","-4.7",0.0,0.0,0,1004.0,0,0,"",94
"2017-12-29 01:10:00","-3.9","-4.7",0.0,0.0,0,1003.9,0,0,"",94
"2017-12-29 01:11:00","-3.9","-4.7",0.0,0.0,0,1003.9,0,0,"",94
"2017-12-29 01:12:00","-3.9","-4.7",0.0,0.0,0,1003.9,0,0,"",94
"2017-12-29 01:13:00","-3.9","-4.7",0.0,0.0,0,1004.0,0,0,"",94
"2017-12-29 01:14:00","-3.9","-4.7",0.0,0.0,0,1003.9,0,0,"",94
"2017-12-29 01:15:00","-3.9","-4.7",0.0,0.0,0,1003.9,0,0,"",94
"2017-12-29 01:16:00","-3.9","-4.7",0.0,0.0,0,1003.9,0,0,"",94
"2017-12-29 01:17:00","-3.9","-4.7",0.0,0.0,0,1003.9,0,0,"",94
"2017-12-29 01:18:00","-3.9","-4.7",0.0,0.0,0,1004.0,0,0,"",94
"2017-12-29 01:19:00","-3.9","-4.7",0.0,0.0,0,1004.0,0,0,"",94
"2017-12-29 01:20:00","-3.9","-4.7",0.0,0.0,0,1003.9,0,0,"",94
"2017-12-29 01:21:00","-3.9","-4.7",0.0,0.0,0,1003.9,0,0,"",94
"2017-12-29 01:22:00","-3.8","-4.6",0.0,0.0,0,1003.8,0,0,"",94
"2017-12-29 01:23:00","-3.8","-4.6",0.0,0.0,0,1003.8,0,0,"",94
"2017-12-29 01:24:00","-3.8","-4.6",0.0,0.0,0,1003.8,0,0,"",94
"2017-12-29 01:25:00","-3.8","-4.6",0.0,0.0,0,1003.8,0,0,"",94
"2017-12-29 01:26:00","-3.8","-4.6",0.0,0.0,0,1003.8,0,0,"",94
"2017-12-29 01:27:00","-3.8","-4.6",0.0,0.0,0,1003.8,0,0,"",94
"2017-12-29 01:28:00","-3.8","-4.6",0.0,0.0,0,1003.8,0,0,"",94
"2017-12-29 01:29:00","-3.8","-4.6",0.0,0.0,0,1003.8,0,0,"",94
"2017-12-29 01:30:00","-3.8","-4.6",0.0,0.0,0,1003.8,0,0,"",94
"2017-12-29 01:31:00","-3.8","-4.6",0.0,0.0,0,1003.8,0,0,"",94
"2017-12-29 01:32:00","-3.8","-4.6",0.0,0.0,0,1003.8,0,0,"",94
"2017-12-29 01:33:00","-3.8","-4.6",0.0,0.0,0,1003.7,0,0,"",94
"2017-12-29 01:34:00","-3.8","-4.6",0.0,0.0,0,1003.8,0,0,"",94
"2017-12-29 01:35:00","-3.7","-4.5",0.0,0.0,0,1003.8,0,0,"",94
"2017-12-29 01:36:00","-3.7","-4.5",0.0,0.0,0,1003.7,0,0,"",94
"2017-12-29 01:37:00","-3.7","-4.5",0.0,0.0,0,1003.7,0,0,"",94
"2017-12-29 01:38:00","-3.7","-4.5",0.0,0.0,0,1003.7,0,0,"",94
"2017-12-29 01:39:00","-3.7","-4.5",0.0,0.0,0,1003.6,0,0,"",94
"2017-12-29 01:40:00","-3.6","-4.4",0.0,0.0,0,1003.6,0,0,"",94
"2017-12-29 01:41:00","-3.6","-4.4",0.0,0.0,0,1003.5,0,0,"",94
"2017-12-29 01:42:00","-3.6","-4.4",0.0,0.0,0,1003.5,0,0,"",94
"2017-12-29 01:43:00","-3.6","-4.4",0.0,0.0,0,1003.5,0,0,"",94
"2017-12-29 01:44:00","-3.5","-4.3",0.0,0.0,0,1003.4,0,0,"",94
"2017-12-29 01:45:00","-3.5","-4.3",0.0,0.0,0,1003.5,0,0,"",94
"2017-12-29 01:46:00","-3.5","-4.3",0.0,0.0,0,1003.5,0,0,"",94
"2017-12-29 01:47:00","-3.4","-4.2",0.0,0.0,0,1003.5,0,0,"",94
"2017-12-29 01:48:00","-3.4","-4.2",0.0,0.0,0,1003.5,0,0,"",94
"2017-12-29 01:49:00","-3.4","-4.2",0.0,0.0,0,1003.5,0,0,"",94
"2017-12-29 01:50:00","-3.4","-4.2",0.0,0.0,0,1003.4,0,0,"",94
"2017-12-29 01:51:00","-3.4","-4.2",0.0,0.0,0,1003.4,0,0,"",94
"2017-12-29 01:52:00","-3.4","-4.2",0.0,0.0,0,1003.4,0,0,"",94
"2017-12-29 01:53:00","-3.4","-4.2",0.0,0.0,0,1003.4,0,0,"",94
"2017-12-29 01:54:00","-3.3","-4.1",0.0,0.0,0,1003.5,0,0,"",94
"2017-12-29 01:55:00","-3.3","-4.1",0.0,0.0,0,1003.5,0,0,"",94
"2017-12-29 01:56:00","-3.3","-4.1",0.0,0.0,0,1003.5,0,0,"",94
"2017-12-29 01:57:00","-3.3","-4.1",0.0,0.0,0,1003.5,0,0,"",94
"2017-12-29 01:58:00","-3.3","-4.1",0.0,0.0,0,1003.5,0,0,"",94
"2017-12-29 01:59:00","-3.3","-4.1",0.0,0.0,0,1003.5,0,0,"",94
"2017-12-29 02:00:00","-3.3","-4.1",0.0,0.0,0,1003.5,0,0,"",94
"2017-12-29 02:01:00","-3.2","-4.0",0.0,0.0,0,1003.4,0,0,"",94
"2017-12-29 02:02:00","-3.2","-4.0",0.0,0.0,0,1003.4,0,0,"",94
"2017-12-29 02:03:00","-3.2","-4.0",0.0,0.0,0,1003.4,0,0,"",94
"2017-12-29 02:04:00","-3.2","-4.0",0.0,0.0,0,1003.3,0,0,"",94
"2017-12-29 02:05:00","-3.2","-4.0",0.0,0.0,0,1003.3,0,0,"",94
"2017-12-29 02:06:00","-3.1","-3.9",0.0,0.0,0,1003.2,0,0,"",94
"2017-12-29 02:07:00","-3.1","-3.9",0.0,0.0,0,1003.3,0,0,"",94
"2017-12-29 02:08:00","-3.1","-3.9",0.0,0.0,0,1003.3,0,0,"",94
"2017-12-29 02:09:00","-3.1","-3.9",0.0,0.0,0,1003.3,0,0,"",94
"2017-12-29 02:10:00","-3.1","-3.9",0.0,0.0,0,1003.2,0,0,"",94
"2017-12-29 02:11:00","-3.1","-3.9",0.0,0.0,0,1003.2,0,0,"",94
"2017-12-29 02:12:00","-3.0","-3.8",0.0,0.0,0,1003.2,0,0,"",94
"2017-12-29 02:13:00","-3.0","-3.8",0.0,0.0,0,1003.2,0,0,"",94
"2017-12-29 02:14:00","-2.9","-3.7",0.0,0.0,0,1003.2,0,0,"",94
"2017-12-29 02:15:00","-2.9","-3.7",0.0,0.0,0,1003.1,0,0,"",94
"2017-12-29 02:16:00","-2.9","-3.7",0.0,0.0,0,1003.1,0,0,"",94
"2017-12-29 02:17:00","-2.9","-3.7",0.0,0.0,0,1003.1,0,0,"",94
"2017-12-29 02:18:00","-2.9","-3.7",0.0,0.0,0,1003.0,0,0,"",94
"2017-12-29 02:19:00","-2.8","-3.6",0.0,0.0,0,1003.0,0,0,"",94
"2017-12-29 02:20:00","-2.8","-3.6",0.0,0.0,0,1003.0,0,0,"",94
"2017-12-29 02:21:00","-2.8","-3.6",0.0,0.0,0,1002.9,0,0,"",94
"2017-12-29 02:22:00","-2.8","-3.6",0.0,0.0,0,1002.9,0,0,"",94
"2017-12-29 02:23:00","-2.8","-3.6",0.0,0.0,0,1002.9,0,0,"",94
"2017-12-29 02:24:00","-2.8","-3.6",0.0,0.0,0,1003.0,0,0,"",94
"2017-12-29 02:25:00","-2.7","-3.5",0.0,0.0,0,1002.9,0,0,"",94
"2017-12-29 02:26:00","-2.7","-3.5",0.0,0.0,0,1003.0,0,0,"",94
"2017-12-29 02:27:00","-2.7","-3.5",0.0,0.0,0,1003.0,0,0,"",94
"2017-12-29 02:28:00","-2.7","-3.5",0.0,0.0,0,1002.9,0,0,"",94
"2017-12-29 02:29:00","-2.7","-3.5",0.0,0.0,0,1002.9,0,0,"",94
"2017-12-29 02:30:00","-2.7","-3.5",0.0,0.0,0,1002.9,0,0,"",94
"2017-12-29 02:31:00","-2.7","-3.5",0.0,0.0,0,1002.9,0,0,"",94
"2017-12-29 02:32:00","-2.7","-3.5",0.0,0.0,0,1002.9,0,0,"",94
"2017-12-29 02:33:00","-2.6","-3.4",0.0,0.0,0,1002.9,0,0,"",94
"2017-12-29 02:34:00","-2.6","-3.4",0.0,0.0,0,1002.9,0,0,"",94
"2017-12-29 02:35:00","-2.6","-3.4",0.0,0.0,0,1002.8,0,0,"",94
"2017-12-29 02:36:00","-2.6","-3.4",0.0,0.0,0,1002.7,0,0,"",94
"2017-12-29 02:37:00","-2.6","-3.4",0.0,0.0,0,1002.7,0,0,"",94
"2017-12-29 02:38:00","-2.6","-3.4",0.0,0.0,0,1002.7,0,0,"",94
"2017-12-29 02:39:00","-2.5","-3.3",0.0,0.0,0,1002.7,0,0,"",94
"2017-12-29 02:40:00","-2.5","-3.3",0.0,0.0,0,1002.7,0,0,"",94
"2017-12-29 02:41:00","-2.5","-3.3",0.0,0.0,0,1002.7,0,0,"",94
"2017-12-29 02:42:00","-2.4","-3.2",0.0,0.0,0,1002.6,0,0,"",94
"2017-12-29 02:43:00","-2.4","-3.2",0.0,0.0,0,1002.6,0,0,"",94
"2017-12-29 02:44:00","-2.4","-3.2",0.0,0.0,0,1002.6,0,0,"",94
"2017-12-29 02:45:00","-2.4","-3.2",0.0,0.0,0,1002.6,0,0,"",94
"2017-12-29 02:46:00","-2.3","-3.1",0.0,0.0,0,1002.5,0,0,"",94
"2017-12-29 02:47:00","-2.3","-3.1",0.0,0.0,0,1002.5,0,0,"",94
"2017-12-29 02:48:00","-2.3","-3.1",0.0,0.0,0,1002.4,0,0,"",94
"2017-12-29 02:49:00","-2.3","-3.1",0.0,0.0,0,1002.4,0,0,"",94
"2017-12-29 02:50:00","-2.3","-3.1",0.0,0.0,0,1002.4,0,0,"",94
"2017-12-29 02:51:00","-2.3","-3.1",0.0,0.0,0,1002.3,0,0,"",94
"2017-12-29 02:52:00","-2.3","-3.1",0.0,0.0,0,1002.3,0,0,"",94
"2017-12-29 02:53:00","-2.3","-3.1",0.0,0.0,0,1002.3,0,0,"",94
"2017-12-29 02:54:00","-2.2","-3.0",0.0,0.0,0,1002.3,0,0,"",94
"2017-12-29 02:55:00","-2.2","-3.0",0.0,0.0,0,1002.3,0,0,"",94
"2017-12-29 02:56:00","-2.2","-3.0",0.0,0.0,0,1002.3,0,0,"",94
"2017-12-29 02:57:00","-2.2","-3.0",0.0,0.0,0,1002.2,0,0,"",94
"2017-12-29 02:58:00","-2.2","-3.0",0.0,0.0,0,1002.2,0,0,"",94
"2017-12-29 02:59:00","-2.2","-3.0",0.0,0.0,0,1002.2,0,0,"",94
"2017-12-29 03:00:00","-2.2","-3.0",0.0,0.0,0,1002.1,0,0,"",94
"2017-12-29 03:01:00","-2.1","-2.9",0.0,0.0,0,1002.1,0,0,"",94
"2017-12-29 03:02:00","-2.1","-2.9",0.0,0.0,0,1002.1,0,0,"",94
"2017-12-29 03:03:00","-2.1","-2.9",0.0,0.0,0,1002.1,0,0,"",94
"2017-12-29 03:04:00","-2.1","-2.9",0.0,0.0,0,1002.0,0,0,"",94
"2017-12-29 03:05:00","-2.1","-2.9",0.0,0.0,0,1002.0,0,0,"",94
"2017-12-29 03:06:00","-2.0","-2.8",0.0,0.0,0,1002.0,0,0,"",94
"2017-12-29 03:07:00","-2.0","-2.8",0.0,0.0,0,1002.0,0,0,"",94
"2017-12-29 03:08:00","-2.0","-2.8",0.0,0.0,0,1002.0,0,0,"",94
"2017-12-29 03:09:00","-1.9","-2.7",0.0,0.0,0,1001.9,0,0,"",94
"2017-12-29 03:10:00","-1.9","-2.7",0.0,0.0,0,1001.8,0,0,"",94
"2017-12-29 03:11:00","-1.9","-2.7",0.0,0.0,0,1001.8,0,0,"",94
"2017-12-29 03:12:00","-1.9","-2.7",0.0,0.0,0,1001.8,0,0,"",94
"2017-12-29 03:13:00","-1.9","-2.7",0.0,0.0,0,1001.8,0,0,"",94
"2017-12-29 03:14:00","-1.8","-2.6",0.0,0.0,0,1001.7,0,0,"",94
"2017-12-29 03:15:00","-1.8","-2.6",0.0,0.0,0,1001.8,0,0,"",94
"2017-12-29 03:16:00","-1.8","-2.6",0.0,0.0,0,1001.7,0,0,"",94
"2017-12-29 03:17:00","-1.8","-2.6",0.0,0.0,0,1001.7,0,0,"",94
"2017-12-29 03:18:00","-1.8","-2.6",0.0,0.0,0,1001.6,0,0,"",94
"2017-12-29 03:19:00","-1.8","-2.6",0.0,0.0,0,1001.6,0,0,"",94
"2017-12-29 03:20:00","-1.8","-2.6",0.0,0.0,0,1001.6,0,0,"",94
"2017-12-29 03:21:00","-1.8","-2.6",0.0,0.0,0,1001.5,0,0,"",94
"2017-12-29 03:22:00","-1.7","-2.5",0.0,0.0,0,1001.5,0,0,"",94
"2017-12-29 03:23:00","-1.7","-2.5",0.0,0.0,0,1001.4,0,0,"",94
"2017-12-29 03:24:00","-1.7","-2.5",0.0,0.0,0,1001.4,0,0,"",94
"2017-12-29 03:25:00","-1.7","-2.5",0.0,0.0,0,1001.4,0,0,"",94
"2017-12-29 03:26:00","-1.7","-2.5",0.0,0.0,0,1001.4,0,0,"",94
"2017-12-29 03:27:00","-1.7","-2.5",0.0,0.0,0,1001.4,0,0,"",94
"2017-12-29 03:28:00","-1.7","-2.4",0.0,0.0,0,1001.4,0,0,"",95
"2017-12-29 03:29:00","-1.7","-2.4",0.0,0.0,0,1001.3,0,0,"",95
"2017-12-29 03:30:00","-1.7","-2.4",0.0,0.0,0,1001.3,0,0,"",95
"2017-12-29 03:31:00","-1.6","-2.4",0.0,0.0,0,1001.3,0,0,"",94
"2017-12-29 03:32:00","-1.6","-2.4",0.0,0.0,0,1001.2,0,0,"",94
"2017-12-29 03:33:00","-1.6","-2.3",0.0,0.0,0,1001.2,0,0,"",95
"2017-12-29 03:34:00","-1.6","-2.4",0.0,0.0,0,1001.2,0,0,"",94
"2017-12-29 03:35:00","-1.6","-2.3",0.0,0.0,0,1001.1,0,0,"",95
"2017-12-29 03:36:00","-1.6","-2.4",0.0,0.0,0,1001.1,0,0,"",94
"2017-12-29 03:37:00","-1.5","-2.2",0.0,0.0,0,1001.0,0,0,"",95
"2017-12-29 03:38:00","-1.5","-2.3",0.0,0.0,0,1001.0,0,0,"",94
"2017-12-29 03:39:00","-1.5","-2.3",0.0,0.0,0,1001.0,0,0,"",94
"2017-12-29 03:40:00","-1.5","-2.3",0.0,0.0,0,1001.0,0,0,"",94
"2017-12-29 03:41:00","-1.5","-2.2",0.0,0.0,0,1001.0,0,0,"",95
"2017-12-29 03:42:00","-1.5","-2.3",0.0,0.0,0,1000.9,0,0,"",94
"2017-12-29 03:43:00","-1.4","-2.2",0.0,0.0,0,1000.9,0,0,"",94
"2017-12-29 03:44:00","-1.4","-2.2",0.0,0.0,0,1000.9,0,0,"",94
"2017-12-29 03:45:00","-1.4","-2.2",0.0,0.0,0,1000.9,0,0,"",94
"2017-12-29 03:46:00","-1.4","-2.2",0.0,0.0,0,1000.9,0,0,"",94
"2017-12-29 03:47:00","-1.4","-2.1",0.0,0.0,0,1000.9,0,0,"",95
"2017-12-29 03:48:00","-1.4","-2.2",0.0,0.0,0,1000.8,0,0,"",94
"2017-12-29 03:49:00","-1.3","-2.0",0.0,0.0,0,1000.8,0,0,"",95
"2017-12-29 03:50:00","-1.3","-2.0",0.0,0.0,0,1000.8,0,0,"",95
"2017-12-29 03:51:00","-1.3","-2.0",0.0,0.0,0,1000.8,0,0,"",95
"2017-12-29 03:52:00","-1.3","-2.0",0.0,0.0,0,1000.8,0,0,"",95
"2017-12-29 03:53:00","-1.3","-2.0",0.0,0.0,0,1000.8,0,0,"",95
"2017-12-29 03:54:00","-1.3","-2.0",0.0,0.0,0,1000.8,0,0,"",95
"2017-12-29 03:55:00","-1.3","-2.0",0.0,0.0,0,1000.8,0,0,"",95
"2017-12-29 03:56:00","-1.3","-2.0",0.0,0.0,0,1000.7,0,0,"",95
"2017-12-29 03:57:00","-1.3","-2.0",0.0,0.0,0,1000.7,0,0,"",95
"2017-12-29 03:58:00","-1.2","-2.0",0.0,0.0,0,1000.7,0,0,"",94
"2017-12-29 03:59:00","-1.2","-2.0",0.0,0.0,0,1000.6,0,0,"",94
"2017-12-29 04:00:00","-1.2","-2.0",0.0,0.0,0,1000.6,0,0,"",94
"2017-12-29 04:01:00","-1.2","-2.0",0.0,0.0,0,1000.5,0,0,"",94
"2017-12-29 04:02:00","-1.2","-2.0",0.0,0.0,0,1000.5,0,0,"",94
"2017-12-29 04:03:00","-1.2","-2.0",0.0,0.0,0,1000.5,0,0,"",94
"2017-12-29 04:04:00","-1.1","-1.9",0.0,0.0,0,1000.4,0,0,"",94
"2017-12-29 04:05:00","-1.1","-1.9",0.0,0.0,0,1000.4,0,0,"",94
"2017-12-29 04:06:00","-1.1","-1.9",0.0,0.0,0,1000.4,0,0,"",94
"2017-12-29 04:07:00","-1.1","-1.9",0.0,0.0,0,1000.4,0,0,"",94
"2017-12-29 04:08:00","-1.1","-1.9",0.0,0.0,0,1000.3,0,0,"",94
"2017-12-29 04:09:00","-1.1","-1.9",0.0,0.0,0,1000.3,0,0,"",94
"2017-12-29 04:10:00","-1.1","-1.8",0.0,0.0,0,1000.3,0,0,"",95
"2017-12-29 04:11:00","-1.1","-1.8",0.0,0.0,0,1000.3,0,0,"",95
"2017-12-29 04:12:00","-1.0","-1.7",0.0,0.0,0,1000.3,0,0,"",95
"2017-12-29 04:13:00","-1.0","-1.7",0.0,0.0,0,1000.2,0,0,"",95
"2017-12-29 04:14:00","-1.0","-1.7",0.0,0.0,0,1000.2,0,0,"",95
"2017-12-29 04:15:00","-1.0","-1.7",0.0,0.0,0,1000.2,0,0,"",95
"2017-12-29 04:16:00","-1.0","-1.7",0.0,0.0,0,1000.2,0,0,"",95
"2017-12-29 04:17:00","-0.9","-1.6",0.0,0.0,0,1000.2,0,0,"",95
"2017-12-29 04:18:00","-0.9","-1.6",0.0,0.0,0,1000.1,0,0,"",95
"2017-12-29 04:19:00","-0.9","-1.6",0.0,0.0,0,1000.1,0,0,"",95
"2017-12-29 04:20:00","-0.9","-1.6",0.0,0.0,0,1000.0,0,0,"",95
"2017-12-29 04:21:00","-0.9","-1.6",0.0,0.0,0,1000.0,0,0,"",95
"2017-12-29 04:22:00","-0.9","-1.6",0.0,0.0,0,1000.0,0,0,"",95
"2017-12-29 04:23:00","-0.8","-1.5",0.0,0.0,0,999.9,0,0,"",95
"2017-12-29 04:24:00","-0.8","-1.5",0.0,0.0,0,999.8,0,0,"",95
"2017-12-29 04:25:00","-0.8","-1.5",0.0,0.0,0,999.8,0,0,"",95
"2017-12-29 04:26:00","-0.8","-1.5",0.0,0.0,0,999.7,0,0,"",95
"2017-12-29 04:27:00","-0.8","-1.5",0.0,0.0,0,999.6,0,0,"",95
"2017-12-29 04:28:00","-0.8","-1.5",0.0,0.0,0,999.6,0,0,"",95
"2017-12-29 04:29:00","-0.8","-1.5",0.0,0.0,0,999.6,0,0,"",95
"2017-12-29 04:30:00","-0.8","-1.5",0.0,0.0,0,999.5,0,0,"",95
"2017-12-29 04:31:00","-0.8","-1.5",0.0,0.0,0,999.5,0,0,"",95
"2017-12-29 04:32:00","-0.8","-1.5",0.0,0.0,0,999.4,0,0,"",95
"2017-12-29 04:33:00","-0.7","-1.4",0.0,0.0,0,999.4,0,0,"",95
"2017-12-29 04:34:00","-0.7","-1.4",0.0,0.0,0,999.3,0,0,"",95
"2017-12-29 04:35:00","-0.7","-1.4",0.0,0.0,0,999.3,0,0,"",95
"2017-12-29 04:36:00","-0.7","-1.4",0.0,0.0,0,999.3,0,0,"",95
"2017-12-29 04:37:00","-0.7","-1.4",0.0,0.0,0,999.2,0,0,"",95
"2017-12-29 04:38:00","-0.6","-1.3",0.0,0.0,0,999.2,0,0,"",95
"2017-12-29 04:39:00","-0.6","-1.3",0.0,0.0,0,999.2,0,0,"",95
"2017-12-29 04:40:00","-0.6","-1.3",0.0,0.0,0,999.1,0,0,"",95
"2017-12-29 04:41:00","-0.6","-1.3",0.0,0.0,0,999.1,0,0,"",95
"2017-12-29 04:42:00","-0.6","-1.3",0.0,0.0,0,999.1,0,0,"",95
"2017-12-29 04:43:00","-0.5","-1.2",0.0,0.0,0,999.1,1,3,"",95
"2017-12-29 04:44:00","-0.5","-1.2",0.0,0.0,0,999.0,2,4,"-2.9",95
"2017-12-29 04:45:00","-0.5","-1.2",0.0,0.0,0,999.0,0,1,"",95
"2017-12-29 04:46:00","-0.5","-1.2",0.0,0.0,0,998.9,0,0,"",95
"2017-12-29 04:47:00","-0.4","-1.1",0.0,0.0,0,998.9,0,2,"",95
"2017-12-29 04:48:00","-0.4","-1.1",0.0,0.0,0,998.8,1,3,"",95
"2017-12-29 04:49:00","-0.4","-1.1",0.0,0.0,0,998.7,0,1,"",95
"2017-12-29 04:50:00","-0.4","-1.1",0.0,0.0,0,998.7,0,1,"",95
"2017-12-29 04:51:00","-0.4","-1.1",0.0,0.0,0,998.7,0,1,"",95
"2017-12-29 04:52:00","-0.4","-1.1",0.0,0.0,0,998.7,0,0,"",95
"2017-12-29 04:53:00","-0.4","-1.1",0.0,0.0,0,998.7,0,0,"",95
"2017-12-29 04:54:00","-0.4","-1.1",0.0,0.0,0,998.7,0,1,"",95
"2017-12-29 04:55:00","-0.3","-1.0",0.0,0.0,0,998.6,1,1,"",95
"2017-12-29 04:56:00","-0.3","-1.0",0.0,0.0,0,998.6,0,1,"",95
"2017-12-29 04:57:00","-0.3","-1.0",0.0,0.0,0,998.6,0,1,"",95
"2017-12-29 04:58:00","-0.3","-1.0",0.0,0.0,0,998.5,0,0,"",95
"2017-12-29 04:59:00","-0.3","-1.0",0.0,0.0,0,998.6,0,0,"",95
"2017-12-29 05:00:00","-0.3","-1.0",0.0,0.0,0,998.5,0,0,"",95
"2017-12-29 05:01:00","-0.3","-1.0",0.0,0.0,0,998.6,0,0,"",95
"2017-12-29 05:02:00","-0.3","-1.0",0.0,0.0,0,998.5,0,0,"",95
"2017-12-29 05:03:00","-0.3","-1.0",0.0,0.0,0,998.5,0,2,"",95
"2017-12-29 05:04:00","-0.3","-1.0",0.0,0.0,0,998.4,0,2,"",95
"2017-12-29 05:05:00","-0.3","-1.0",0.0,0.0,0,998.3,0,1,"",95
"2017-12-29 05:06:00","-0.2","-0.9",0.0,0.0,0,998.3,1,2,"",95
"2017-12-29 05:07:00","-0.2","-0.9",0.0,0.0,0,998.4,1,3,"",95
"2017-12-29 05:08:00","-0.2","-0.9",0.0,0.0,0,998.3,1,4,"-2.4",95
"2017-12-29 05:09:00","-0.2","-0.9",0.0,0.0,0,998.3,1,2,"",95
"2017-12-29 05:10:00","-0.2","-0.9",0.0,0.0,0,998.3,1,2,"",95
"2017-12-29 05:11:00","-0.2","-0.9",0.0,0.0,0,998.3,1,2,"",95
"2017-12-29 05:12:00","-0.1","-0.8",0.0,0.0,0,998.3,0,1,"",95
"2017-12-29 05:13:00","-0.1","-0.8",0.0,0.0,0,998.3,0,1,"",95
"2017-12-29 05:14:00","-0.1","-0.8",0.0,0.0,0,998.3,0,1,"",95
"2017-12-29 05:15:00","-0.1","-0.8",0.0,0.0,0,998.3,1,2,"",95
"2017-12-29 05:16:00","-0.1","-0.8",0.0,0.0,0,998.3,0,2,"",95
"2017-12-29 05:17:00","-0.1","-0.8",0.0,0.0,0,998.2,0,1,"",95
"2017-12-29 05:18:00","-0.1","-0.8",0.0,0.0,0,998.1,1,2,"",95
"2017-12-29 05:19:00",0.0,"-0.7",0.0,0.0,0,998.2,2,3,"",95
"2017-12-29 05:20:00",0.0,"-0.7",0.0,0.0,0,998.1,1,2,"",95
"2017-12-29 05:21:00",0.0,"-0.7",0.0,0.0,0,998.1,0,1,"",95
"2017-12-29 05:22:00",0.0,"-0.7",0.0,0.0,0,998.0,0,1,"",95
"2017-12-29 05:23:00",0.0,"-0.7",0.0,0.0,0,998.1,0,0,"",95
"2017-12-29 05:24:00",0.1,"-0.6",0.0,0.0,0,998.0,1,2,"",95
"2017-12-29 05:25:00",0.1,"-0.6",0.0,0.0,0,998.0,1,1,"",95
"2017-12-29 05:26:00",0.1,"-0.6",0.0,0.0,0,998.1,1,1,"",95
"2017-12-29 05:27:00",0.1,"-0.6",0.0,0.0,0,998.1,0,1,"",95
"2017-12-29 05:28:00",0.1,"-0.6",0.0,0.0,0,997.9,0,1,"",95
"2017-12-29 05:29:00",0.1,"-0.6",0.0,0.0,0,997.9,1,2,"",95
"2017-12-29 05:30:00",0.1,"-0.6",0.0,0.0,0,997.9,0,1,"",95
"2017-12-29 05:31:00",0.1,"-0.6",0.0,0.0,0,997.9,0,0,"",95
"2017-12-29 05:32:00",0.1,"-0.6",0.0,0.0,0,997.9,0,1,"",95
"2017-12-29 05:33:00",0.1,"-0.6",0.0,0.0,0,997.9,1,2,"",95
"2017-12-29 05:34:00",0.1,"-0.6",0.0,0.0,0,997.9,1,2,"",95
"2017-12-29 05:35:00",0.2,"-0.5",0.0,0.0,0,997.9,1,1,"",95
"2017-12-29 05:36:00",0.2,"-0.5",0.0,0.0,0,997.9,0,0,"",95
"2017-12-29 05:37:00",0.2,"-0.5",0.0,0.0,0,997.8,0,0,"",95
"2017-12-29 05:38:00",0.2,"-0.5",0.0,0.0,0,997.6,1,1,"",95
"2017-12-29 05:39:00",0.2,"-0.5",0.0,0.0,0,997.6,0,2,"",95
"2017-12-29 05:40:00",0.2,"-0.5",0.0,0.0,0,997.4,1,2,"",95
"2017-12-29 05:41:00",0.2,"-0.5",0.0,0.0,0,997.5,2,4,"-2.0",95
"2017-12-29 05:42:00",0.3,"-0.4",0.0,0.0,0,997.5,1,2,"",95
"2017-12-29 05:43:00",0.3,"-0.4",0.0,0.0,0,997.5,0,2,"",95
"2017-12-29 05:44:00",0.3,"-0.4",0.0,0.0,0,997.5,1,2,"",95
"2017-12-29 05:45:00",0.3,"-0.4",0.0,0.0,0,997.5,3,5,"-2.4",95
"2017-12-29 05:46:00",0.3,"-0.4",0.0,0.0,0,997.4,2,5,"-2.4",95
"2017-12-29 05:47:00",0.3,"-0.4",0.0,0.0,0,997.4,3,5,"-2.4",95
"2017-12-29 05:48:00",0.4,"-0.3",0.0,0.0,0,997.3,2,4,"-1.7",95
"2017-12-29 05:49:00",0.4,"-0.3",0.0,0.0,0,997.2,4,8,"-3.5",95
"2017-12-29 05:50:00",0.6,"-0.1",0.0,0.0,0,997.1,4,8,"-3.3",95
"2017-12-29 05:51:00",0.7,0.0,0.0,0.0,0,997.0,4,5,"-2.0",95
"2017-12-29 05:52:00",0.8,0.1,0.0,0.0,0,997.0,5,11,"-4.0",95
"2017-12-29 05:53:00",0.9,0.2,0.0,0.0,0,996.9,1,2,"",95
"2017-12-29 05:54:00",1.1,0.4,0.0,0.0,0,996.9,1,4,"-0.9",95
"2017-12-29 05:55:00",1.2,0.5,0.0,0.0,0,996.9,1,4,"-0.9",95
"2017-12-29 05:56:00",1.2,0.5,0.0,0.0,0,996.8,1,4,"-0.8",95
"2017-12-29 05:57:00",1.3,0.6,0.0,0.0,0,996.8,2,5,"-1.2",95
"2017-12-29 05:58:00",1.4,0.7,0.0,0.0,0,996.8,2,3,"",95
"2017-12-29 05:59:00",1.5,0.8,0.0,0.0,0,996.7,1,2,"",95
"2017-12-29 06:00:00",1.6,0.9,0.0,0.0,0,996.7,0,1,"",95
"2017-12-29 06:01:00",1.7,1.0,0.0,0.0,0,996.7,1,2,"",95
"2017-12-29 06:02:00",1.7,1.0,0.0,0.0,0,996.7,1,2,"",95
"2017-12-29 06:03:00",1.7,1.0,0.0,0.0,0,996.7,0,2,"",95
"2017-12-29 06:04:00",1.8,1.1,0.0,0.0,0,996.7,1,3,"",95
"2017-12-29 06:05:00",1.8,1.1,0.0,0.0,0,996.7,0,2,"",95
"2017-12-29 06:06:00",1.8,1.1,0.0,0.0,0,996.7,1,2,"",95
"2017-12-29 06:07:00",1.9,1.2,0.0,0.0,0,996.6,1,3,"",95
"2017-12-29 06:08:00",1.9,1.2,0.0,0.0,0,996.6,2,5,"-0.5",95
"2017-12-29 06:09:00",1.9,1.2,0.0,0.0,0,996.5,1,4,0.0,95
"2017-12-29 06:10:00",1.9,1.2,0.0,0.0,0,996.5,0,0,"",95
"2017-12-29 06:11:00",2.0,1.3,0.0,0.0,0,996.4,2,6,"-1.0",95
"2017-12-29 06:12:00",2.0,1.3,0.0,0.0,0,996.4,1,1,"",95
"2017-12-29 06:13:00",2.0,1.3,0.0,0.0,0,996.3,1,1,"",95
"2017-12-29 06:14:00",2.0,1.3,0.0,0.0,0,996.2,0,1,"",95
"2017-12-29 06:15:00",2.1,1.4,0.0,0.0,0,996.2,0,1,"",95
"2017-12-29 06:16:00",2.1,1.4,0.0,0.0,0,996.1,0,2,"",95
"2017-12-29 06:17:00",2.1,1.4,0.0,0.0,0,996.1,0,2,"",95
"2017-12-29 06:18:00",2.1,1.4,0.0,0.0,0,996.1,0,0,"",95
"2017-12-29 06:19:00",2.1,1.4,0.0,0.0,0,996.1,0,0,"",95
"2017-12-29 06:20:00",2.1,1.4,0.0,0.0,0,996.1,1,2,"",95
"2017-12-29 06:21:00",2.1,1.4,0.0,0.0,0,996.0,1,1,"",95
"2017-12-29 06:22:00",2.1,1.4,0.0,0.0,0,996.1,1,2,"",95
"2017-12-29 06:23:00",2.1,1.4,0.0,0.0,0,996.0,1,2,"",95
"2017-12-29 06:24:00",2.1,1.4,0.0,0.0,0,996.0,1,2,"",95